Broomfield, CO

12:28 AM MST on January 19, 2017 (GMT -0700)
Jeffco

Weather History for KBJC - March, 2013

Change the Weather History Date:

Sunday, March 24, 2013

  Actual Average Record
Temperature  
Mean Temperature 19 °F -  
Max Temperature 26 °F 53 °F 77 °F (1998)
Min Temperature 12 °F 32 °F 9 °F (1987)
Degree Days  
Heating Degree Days 46    
Moisture  
Dew Point 9 °F    
Average Humidity 69    
Maximum Humidity 86    
Minimum Humidity 46    
Precipitation  
Precipitation 0.00 in - - ()
Sea Level Pressure  
Sea Level Pressure 30.08 in    
Wind  
Wind Speed 3 mph (West)    
Max Wind Speed 8 mph    
Max Gust Speed -    
Visibility 10 miles    
Events Snow    
Averages and records for this station are not official NWS values.
T = Trace of Precipitation, MM = Missing Value Source: NWS Daily Summary

Daily Weather History Graph

Daily Weather History Graph

Search for Another Location

Airport or City:

Trip Planner

Search our weather history database for the weather conditions in past years. The results will help you decide how hot, cold, wet, or windy it might be!

Date:

Astronomy

Mar. 24, 2013 Rise Set
Actual Time 6:56 AM MDT 7:16 PM MDT
Civil Twilight 6:29 AM MDT 7:44 PM MDT
Nautical Twilight 5:58 AM MDT 8:15 PM MDT
Astronomical Twilight 5:25 AM MDT 8:48 PM MDT
Moon 4:48 PM MDT (3/24) 5:08 AM MDT (3/24)
Length of Visible Light 13h 14m
Length of Day
12h 20m
Waxing Gibbous, 92% of the Moon is Illuminated
Mar 24
Waxing Gibbous
Mar 27
Full
Apr 2
Last Quarter
Apr 10
New
Apr 18
First Quarter

Hourly Weather History & Observations

Time (MDT) Temp. Windchill Dew Point Humidity Pressure Visibility Wind Dir Wind Speed Gust Speed Precip Events Conditions
12:15 AM 12.2 °F 1.7 °F 3.2 °F 67% 30.11 in 10.0 mi WSW 6.9 mph - N/A   Mostly Cloudy
12:35 AM 14.0 °F 5.1 °F 5.0 °F 67% 30.10 in 10.0 mi WSW 5.8 mph - N/A   Overcast
12:54 AM 15.8 °F 8.6 °F 5.0 °F 62% 30.10 in 10.0 mi WSW 4.6 mph - N/A   Overcast
1:15 AM 14.0 °F 6.5 °F 5.0 °F 67% 30.10 in 10.0 mi West 4.6 mph - N/A   Mostly Cloudy
1:35 AM 14.0 °F 6.5 °F 3.2 °F 62% 30.09 in 10.0 mi West 4.6 mph - N/A   Scattered Clouds
1:55 AM 15.8 °F - 5.0 °F 62% 30.09 in 10.0 mi Calm Calm - N/A   Clear
2:15 AM 14.0 °F - 5.0 °F 67% 30.08 in 10.0 mi Calm Calm - N/A   Clear
2:35 AM 14.0 °F 5.1 °F 3.2 °F 62% 30.08 in 10.0 mi West 5.8 mph - N/A   Clear
2:55 AM 14.0 °F 8.2 °F 3.2 °F 62% 30.06 in 10.0 mi SW 3.5 mph - N/A   Clear
3:15 AM 12.2 °F - 1.4 °F 62% 30.06 in 10.0 mi Calm Calm - N/A   Clear
3:35 AM 14.0 °F - 3.2 °F 62% 30.05 in 10.0 mi Calm Calm - N/A   Clear
3:55 AM 15.8 °F - 5.0 °F 62% 30.05 in 10.0 mi Calm Calm - N/A   Clear
4:15 AM 12.2 °F - 5.0 °F 73% 30.04 in 10.0 mi Calm Calm - N/A   Clear
4:35 AM 14.0 °F 6.5 °F 5.0 °F 67% 30.03 in 10.0 mi NE 4.6 mph - N/A   Clear
4:54 AM 12.2 °F - 5.0 °F 73% 30.04 in 10.0 mi Calm Calm - N/A   Clear
5:15 AM 12.2 °F - 6.8 °F 79% 30.04 in 10.0 mi Calm Calm - N/A   Clear
5:35 AM 14.0 °F - 5.0 °F 67% 30.04 in 10.0 mi Calm Calm - N/A   Clear
5:54 AM 14.0 °F - 6.8 °F 73% 30.04 in 10.0 mi Calm Calm - N/A   Clear
5:55 AM 12.2 °F - 6.8 °F 79% 30.04 in 20.0 mi Calm Calm - N/A   Scattered Clouds
6:47 AM 12.2 °F - 6.8 °F 79% 30.03 in 40.0 mi Calm Calm - N/A   Scattered Clouds
7:50 AM 12.2 °F 6.1 °F 6.8 °F 79% 30.03 in 50.0 mi Variable 3.5 mph - N/A   Mostly Cloudy
8:48 AM 14.0 °F - 6.8 °F 73% 30.04 in 50.0 mi Calm Calm - N/A   Mostly Cloudy
9:49 AM 17.6 °F - 8.6 °F 68% 30.04 in 40.0 mi Calm Calm - N/A   Mostly Cloudy
10:45 AM 17.6 °F 7.3 °F 8.6 °F 68% 30.05 in 30.0 mi North 8.1 mph - N/A   Mostly Cloudy
11:45 AM 19.4 °F 10.4 °F 10.4 °F 68% 30.05 in 30.0 mi North 6.9 mph - N/A   Mostly Cloudy
12:47 PM 21.2 °F 16.4 °F 10.4 °F 63% 30.05 in 30.0 mi West 3.5 mph - N/A   Mostly Cloudy
1:50 PM 24.8 °F 20.5 °F 6.8 °F 46% 30.05 in 20.0 mi NNW 3.5 mph - N/A   Overcast
2:47 PM 24.8 °F 16.9 °F 10.4 °F 54% 30.04 in 30.0 mi North 6.9 mph - N/A   Overcast
3:50 PM 24.8 °F - 12.2 °F 59% 30.05 in 10.0 mi Calm Calm - N/A   Overcast
4:46 PM 24.8 °F 20.5 °F 12.2 °F 59% 30.06 in 15.0 mi SSW 3.5 mph - N/A   Mostly Cloudy
5:03 PM 26.6 °F 22.6 °F 12.2 °F 55% 30.06 in 12.0 mi West 3.5 mph - N/A   Mostly Cloudy
5:46 PM 24.8 °F 16.9 °F 12.2 °F 59% 30.07 in 20.0 mi West 6.9 mph - N/A   Mostly Cloudy
6:47 PM 21.2 °F 12.6 °F 12.2 °F 68% 30.09 in 25.0 mi West 6.9 mph - N/A   Mostly Cloudy
7:47 PM 21.2 °F 12.6 °F 10.4 °F 63% 30.12 in 25.0 mi West 6.9 mph - N/A   Mostly Cloudy
8:11 PM 23.0 °F 14.7 °F 12.2 °F 63% 30.13 in 1.0 mi NNW 6.9 mph - N/A   Mostly Cloudy
8:39 PM 21.2 °F 16.4 °F 15.8 °F 80% 30.14 in 2.0 mi NW 3.5 mph - N/A Snow Light Snow
8:46 PM 21.2 °F - 15.8 °F 80% 30.14 in 2.5 mi Calm Calm - N/A Snow Light Snow
9:03 PM 21.2 °F - 15.8 °F 80% 30.14 in 1.5 mi Calm Calm - N/A Snow Light Snow
9:46 PM 21.2 °F - 17.6 °F 86% 30.16 in 0.5 mi Calm Calm - N/A Snow Light Snow
11:15 PM 21.2 °F - 17.6 °F 86% 30.16 in 5.0 mi Calm Calm - N/A Snow Light Snow
11:35 PM 21.2 °F 13.6 °F 17.6 °F 86% 30.16 in 5.0 mi ESE 5.8 mph - N/A Snow Light Snow
11:55 PM 21.2 °F - 17.6 °F 86% 30.17 in 10.0 mi Calm Calm - N/A Snow Light Snow